SCP
-0 -0 0 0 0 0 -0 0 0 0 0 -0 0 0 0 -0 0 0 -0 -0 -0 -0 -0 -0 -0 -0 -0 -0 -0 -0 -0 -0 -0 -0 -0 -0 -0 0 0 0 0 0 0 0 0 0 0 0 0
-0 -0 -0 0 0 0 -0 -0 -0 0 0 -0 -0 0 0 0 0 -0 -0 -0 -0 -0 -0 -0 -0 -0 -0 -0 -0 -0 -0 -0 -0 -0 -0 0 0 0 0 0 0 0 0 0 0 0 0 0 0
-0 -0 0 0 0 -0 -0 -0 0 -0 -0 -0 -0 -0 -0 -0 0 -0 -0 -0 -0 -0 -0 -0 -0 -0 -0 -0 -0 -0 -0 -0 -0 -0 0 0 0 0 0 0 0 0 0 0 0 0 0 0 0
-0 -0 0 0 0 0 0 -0 0 0 0 -0 -0 -0 -0 -0 -0 -0 -0 -0 -0 -0 -0 -0 -0 -0 -0 -0 -0 -0 -0 -0 -0 -0 0 0 0 0 0 0 0 0 0 0 0 0 0 0 0
-0 -0 -0 -0 0 0 0 0 0 -0 -0 -0 -0 -0 -0 -0 -0 -0 -0 -0 -0 -0 -0 -0 -0 -0 -0 -0 -0 -0 -0 0 0 0 0 0 0 0 0 0 0 0 0 0 0 0 0 0 0
-0 0 0 -0 0 0 0 -0 0 -0 -0 -0 -0 -0 -0 -0 -0 -0 -0 -0 -0 -0 -0 -0 -0 -0 -0 -0 -0 0 0 0 0 0 0 0 0 0 0 0 0 0 0 0 0 0 0 0 0
0 0 0 0 0 0 0 -0 0 -0 -0 -0 -0 -0 0 -0 -0 -0 -0 -0 -0 -0 -0 -0 -0 -0 -0 -0 0 0 0 0 0 0 0 0 0 0 0 0 0 0 0 0 0 0 0 0 0
0 0 0 0 0 0 0 -0 0 -0 0 -0 -0 -0 0 -0 -0 -0 -0 -0 -0 -0 -0 -0 -0 -0 -0 -0 0 0 -0 -0 0 0 0 0 0 0 0 0 0 0 0 0 0 0 0 0 0
0 0 0 0 0 0 0 0 -0 -0 -0 -0 -0 -0 -0 -1 -1 -0 -0 -0 -0 0 -0 -0 -0 -0 0 -0 -0 -0 -0 0 0 0 0 0 0 0 0 0 0 0 0 0 0 0 0 0 0
0 0 0 0 0 0 0 0 0 -0 0 0 -0 0 0 -0 -1 -0 -0 -0 -0 -0 -0 -0 0 0 0 0 -0 -0 0 0 0 0 0 0 0 0 0 0 0 0 0 0 0 0 0 0 0
0 -0 0 0 0 0 0 0 0 0 -0 -0 -0 0 -0 -0 -0 -0 -0 -0 -0 -0 -0 0 0 0 0 0 -0 0 0 0 0 0 0 0 0 0 0 0 0 0 0 0 0 0 0 0 0
0 -0 0 0 0 0 0 -0 0 -0 0 -0 0 0 -0 -0 -0 -0 -0 -0 -0 -0 -0 0 0 0 -0 -0 -0 0 0 0 0 0 0 0 0 0 0 0 0 0 0 0 0 0 0 0 0
-0 0 0 0 -0 0 -0 0 0 -0 0 -0 0 0 -0 -0 -0 -0 -0 -0 -0 0 0 0 -0 -0 0 0 0 0 0 0 0 0 0 0 0 0 0 0 0 0 0 0 0 0 0 0 0
0 0 0 0 0 0 0 -0 -0 -0 0 -0 -0 0 0 -0 -0 -0 -0 -0 0 0 -0 -0 -0 0 0 0 0 0 0 0 0 0 0 0 0 0 0 0 0 0 0 0 0 0 0 0 0
0 0 -0 0 0 0 -0 0 0 -0 -0 -0 -0 0 0 0 -0 -0 -0 -0 0 0 -0 0 0 0 0 0 0 0 0 0 0 0 0 0 0 0 0 0 0 0 0 0 0 0 0 0 0
0 -0 -0 0 0 0 -0 0 0 -0 -0 -0 0 0 0 -0 -0 -0 -0 -0 -0 -0 -0 0 0 0 0 0 0 0 0 0 0 0 0 0 0 0 0 0 0 0 0 0 0 0 0 0 0
0 0 0 0 0 0 0 0 0 0 0 -0 0 0 0 -0 -0 -0 -0 -0 0 -0 -0 0 0 0 0 1 0 0 0 0 0 0 0 0 0 0 0 0 0 0 0 0 0 0 0 0 0
0 -0 0 0 0 0 0 -0 0 0 0 0 0 0 -0 -0 -0 -0 0 0 0 -0 0 0 1 1 1 1 0 0 0 0 0 0 0 0 0 0 0 0 0 0 0 0 0 0 0 0 0
0 0 0 0 0 0 0 0 0 0 0 -0 0 0 0 0 0 0 0 0 1 1 1 1 1 1 1 1 0 0 0 0 0 0 0 0 0 0 0 0 0 0 0 0 0 0 0 0 0
0 0 0 0 0 0 0 0 0 0 0 0 0 0 0 0 0 1 1 1 1 1 1 1 1 1 1 2 1 1 0 0 0 0 0 0 0 0 0 0 0 0 0 0 0 0 0 0 0
0 0 0 0 0 0 0 0 0 0 0 0 0 0 1 0 0 0 0 0 1 1 1 1 1 1 1 0 0 0 0 0 0 0 0 0 0 0 0 0 0 0 0 0 0 0 0 0 0
0 0 0 0 0 0 0 0 0 0 0 0 0 0 0 0 0 0 0 0 0 0 0 0 0 0 0 0 0 0 0 0 0 0 0 0 0 0 0 0 0 0 0 0 0 0 0 0 0
0 0 0 0 0 0 0 0 0 0 0 0 0 0 0 0 0 0 0 0 0 0 0 0 0 0 0 0 0 0 0 0 0 0 0 0 0 0 0 0 0 0 0 0 0 0 0 0 0
0 0 0 0 0 0 0 0 0 0 0 0 0 0 0 0 0 0 0 0 0 0 0 0 0 0 0 0 0 0 0 0 0 0 0 0 0 0 0 0 0 0 0 0 0 0 0 0 0
0 0 0 0 0 0 0 0 0 0 0 0 0 0 0 0 0 0 0 0 0 0 0 0 0 0 0 0 0 0 0 0 0 0 0 0 0 0 0 0 0 0 0 0 0 0 0 0 0
0 0 0 0 0 0 0 0 0 0 0 0 0 0 0 0 0 0 0 0 0 0 0 0 0 0 0 0 0 0 0 0 0 0 0 0 0 0 0 0 0 0 0 0 0 0 0 0 0
0 0 0 0 0 0 0 0 0 0 0 0 0 0 0 0 0 0 0 0 0 0 0 0 0 0 0 0 0 0 0 0 0 0 0 0 0 0 0 0 0 0 0 0 0 0 0 0 0
0 0 0 0 0 0 0 0 0 0 0 0 0 0 0 0 0 0 0 0 0 0 0 0 0 0 0 0 0 0 0 0 0 0 0 0 0 0 0 0 0 0 0 0 0 0 0 0 0
0 0 0 0 0 0 0 0 0 0 0 0 0 0 0 0 0 0 0 0 0 0 0 0 0 0 0 0 0 0 0 0 0 0 0 0 0 0 0 0 0 0 0 0 0 0 0 0 0
0 0 0 0 0 0 0 0 0 0 0 0 0 0 0 0 0 0 0 0 0 0 0 0 0 0 0 0 0 0 0 0 0 0 0 0 0 0 0 0 0 0 0 0 0 0 0 0 0
Wind_Speed_500mb
5 5 2 6 12 14 14 16 11 15 13 7 11 2 3 5 13 9 23 21 31 30 31 27 26 26 26 25 26 26 25 21 17 14 10 7 5 4 4 3 3 4 5 6 7 7 7 8 10
5 3 4 10 16 14 16 18 11 14 8 12 17 11 7 11 10 24 25 31 32 31 30 27 25 23 23 22 21 19 17 15 13 11 10 9 6 4 3 1 1 4 6 8 9 11 12 13 14
3 3 12 9 9 15 17 12 16 21 11 13 10 0 4 7 13 31 23 34 30 30 29 27 24 22 20 20 18 17 15 13 12 10 8 6 6 4 3 1 3 6 8 9 9 10 11 13 15
4 7 12 14 2 14 10 16 18 23 15 7 11 14 12 13 23 17 31 33 28 27 26 26 24 23 22 20 18 17 15 13 12 10 9 7 4 2 1 3 4 6 8 10 11 13 14 16 18
7 12 13 12 7 8 9 19 21 17 12 14 8 13 12 13 16 28 32 29 27 26 25 26 26 24 21 19 18 17 15 13 11 8 5 3 2 2 1 2 4 7 10 12 11 11 11 11 14
18 11 15 13 14 11 12 22 20 14 15 15 10 20 17 17 23 29 29 27 25 25 26 25 26 24 22 20 17 15 13 9 6 4 2 1 1 1 1 4 6 5 7 7 7 9 10 14 16
25 14 7 6 16 18 18 24 22 16 19 16 17 17 16 23 24 27 27 27 25 24 25 25 25 24 22 20 16 13 11 9 7 7 6 5 4 4 4 7 5 4 5 7 11 14 17 21 25
15 15 12 7 11 25 21 27 23 16 19 14 16 10 21 30 30 26 24 23 23 24 23 24 25 23 21 18 17 15 14 14 13 12 10 10 9 9 7 3 2 4 9 14 19 23 27 31 35
9 14 15 10 14 19 29 23 24 13 16 19 18 5 11 35 33 27 25 25 25 24 24 25 24 24 23 21 21 21 19 17 15 14 12 11 6 5 1 9 13 16 20 24 29 34 38 42 46
19 19 9 11 10 5 30 27 31 19 23 22 25 10 27 36 33 30 31 30 28 25 25 26 26 26 26 23 24 20 19 14 14 12 11 7 10 8 9 14 20 27 30 36 42 45 48 47 38
15 20 14 12 4 3 21 26 32 28 24 28 32 23 35 38 34 30 30 29 27 23 25 28 30 30 26 22 21 18 15 17 15 14 13 13 10 13 11 15 19 25 33 33 37 43 41 42 53
18 19 13 3 7 5 12 24 30 36 13 14 18 27 37 40 36 32 33 32 29 26 27 30 31 36 28 21 19 16 13 13 8 12 16 16 10 18 21 23 28 30 31 45 40 45 49 64 59
23 15 15 17 16 19 16 25 27 39 32 6 25 30 36 40 36 33 33 33 31 31 30 31 31 34 32 29 17 15 13 9 13 10 22 23 23 30 33 36 42 45 50 53 63 62 60 72 64
12 15 18 15 21 17 23 25 30 33 36 29 29 33 39 43 42 35 37 37 37 35 33 32 30 35 31 27 23 15 17 13 8 20 27 30 32 38 41 44 47 55 67 70 72 62 74 67 62
12 18 21 15 11 12 22 17 31 26 33 38 32 35 39 44 44 45 40 43 40 37 34 35 33 31 34 32 28 29 23 17 23 29 32 35 38 44 48 54 61 66 73 73 69 63 58 56 57
21 18 26 19 19 8 27 30 36 34 25 36 36 36 40 46 48 45 42 42 41 34 33 30 30 31 38 33 35 27 38 37 32 32 36 35 41 49 50 58 65 71 72 65 54 54 53 54 56
20 26 25 19 12 15 23 17 18 24 30 34 38 42 41 43 44 48 45 40 38 37 34 32 37 34 32 47 42 44 38 37 33 33 37 40 45 52 60 67 67 69 64 54 47 47 50 53 54
25 28 16 17 17 17 27 24 16 18 27 36 40 39 43 45 43 38 37 35 37 38 40 42 40 43 44 46 50 49 42 36 32 35 38 42 53 64 73 64 64 64 52 46 46 49 46 48 50
16 17 19 18 7 11 21 21 22 13 25 34 39 38 35 31 25 30 35 36 37 46 51 57 55 56 56 52 39 27 26 32 31 36 41 49 63 72 71 59 57 49 44 45 43 41 41 41 40
21 24 25 15 6 15 16 24 8 3 13 18 25 26 26 25 25 22 22 26 34 40 43 53 47 53 50 46 33 30 23 29 29 36 44 62 62 63 61 59 49 43 42 39 45 43 39 37 34
24 26 24 25 17 14 11 24 20 9 7 11 10 5 5 5 15 18 15 13 20 30 37 41 47 51 48 37 36 31 23 24 34 44 57 63 70 61 55 51 44 38 37 35 41 33 36 42 44
23 27 24 22 21 23 17 17 23 18 11 7 8 8 8 13 1 8 8 4 5 8 15 20 24 36 37 33 28 23 25 27 42 46 56 50 54 51 47 43 35 35 40 36 32 39 42 41 45
2 4 23 28 27 18 24 15 15 19 18 9 13 16 18 19 17 13 9 7 8 4 6 13 18 24 25 26 25 27 36 33 44 37 37 47 54 41 35 31 30 31 30 31 36 40 38 38 41
6 10 16 19 20 22 23 10 15 12 3 7 17 21 21 20 19 18 17 18 20 20 22 21 28 33 33 29 26 21 22 24 22 31 37 34 27 21 23 27 30 30 29 33 37 36 34 37 40
20 20 16 18 19 20 13 11 9 14 7 4 8 12 15 15 16 18 20 21 22 20 18 16 21 19 12 6 10 14 18 22 27 27 24 30 20 20 24 27 30 31 32 33 38 35 33 33 38
31 26 15 17 14 13 15 13 12 10 11 9 8 8 9 12 15 18 20 20 19 17 16 13 9 3 2 7 14 16 17 21 25 29 29 18 21 24 29 27 29 32 33 30 31 28 31 33 40
17 21 12 15 9 16 15 14 11 16 14 14 13 11 12 15 18 19 20 20 18 15 14 9 5 1 6 10 13 16 19 20 23 27 26 21 26 28 29 28 29 30 30 29 29 29 30 33 33
23 19 14 16 20 24 17 11 10 26 24 21 20 19 19 19 21 22 22 21 17 14 10 7 5 4 9 10 13 17 21 23 25 24 27 28 31 32 31 29 29 29 29 30 31 29 33 33 33
18 24 15 12 9 16 19 10 9 15 21 23 26 27 27 26 25 25 23 21 18 15 10 3 5 6 10 11 15 19 18 22 24 25 28 32 33 30 29 30 28 29 30 32 34 34 33 38 36
12 25 32 21 24 14 18 18 4 15 21 22 25 25 25 27 29 27 24 22 17 14 10 4 1 5 8 11 11 13 18 19 20 25 30 33 28 27 27 25 26 28 30 32 36 37 36 36 37
Wind_Direction_500mb
331 326 273 237 242 246 110 94 89 124 133 128 159 116 42 35 346 43 143 149 148 153 165 160 151 148 146 147 149 154 161 162 163 158 146 145 142 126 116 99 57 19 18 18 12 7 1 352 347
312 302 256 269 258 213 96 108 148 79 84 141 145 152 123 67 59 131 136 146 149 154 159 169 162 156 154 154 156 157 159 158 159 161 166 175 176 170 164 148 341 331 339 345 345 343 342 341 339
268 224 261 259 270 31 101 141 111 112 122 150 143 180 35 63 124 141 153 149 152 153 158 172 167 163 160 162 161 161 164 169 176 180 184 181 188 190 192 210 344 339 339 341 345 343 338 333 329
228 242 240 252 75 76 89 126 134 136 130 150 132 107 98 97 138 158 149 150 148 154 158 166 164 164 164 166 167 167 168 169 172 176 179 181 190 220 310 344 354 357 354 349 347 338 329 325 323
241 246 243 234 100 120 136 147 154 140 115 144 155 118 106 142 138 141 145 149 153 154 159 159 158 158 159 163 164 164 166 169 175 174 173 173 217 246 279 24 6 338 330 328 332 334 337 347 345
243 266 235 196 112 131 139 160 164 140 130 126 158 139 127 155 145 151 150 154 160 160 155 166 157 156 159 164 166 168 170 173 174 185 174 177 214 194 349 335 344 30 51 34 7 348 332 327 325
264 249 299 91 118 147 144 170 182 154 157 168 146 149 131 160 161 153 154 161 161 166 162 163 164 162 165 170 172 172 168 164 156 166 160 156 161 164 146 115 91 39 359 339 326 317 312 308 306
262 267 206 179 174 113 147 173 181 177 149 148 170 162 170 171 162 158 162 163 164 169 171 169 169 171 169 170 166 163 155 159 156 146 139 133 133 130 128 110 335 289 290 299 302 305 305 303 303
243 241 212 145 199 128 159 176 186 179 164 180 185 121 145 170 161 162 168 172 176 175 179 175 172 178 169 178 165 162 163 159 154 150 141 133 142 154 272 245 270 292 297 298 301 302 302 302 301
237 252 126 99 87 137 176 198 177 185 183 191 180 161 157 165 166 173 179 182 182 182 183 179 177 178 172 175 179 168 171 163 166 164 166 142 195 216 225 281 287 292 296 299 304 304 304 309 303
194 247 125 159 87 16 175 202 183 209 195 202 192 169 171 172 177 185 189 186 184 183 182 183 181 180 179 179 178 178 180 185 184 192 192 210 218 257 281 290 301 298 303 308 299 302 302 294 294
233 236 212 116 185 218 192 200 199 212 189 221 197 181 180 183 187 191 191 188 190 188 187 186 189 188 179 188 184 192 185 186 182 216 222 245 272 287 286 296 295 304 303 304 308 305 297 300 297
232 222 225 246 253 250 244 217 210 214 218 222 190 188 190 193 194 196 195 194 196 196 198 194 194 198 198 187 196 185 184 201 230 240 250 260 277 287 297 298 304 304 304 306 302 300 297 297 297
184 240 245 257 260 238 222 211 211 224 218 218 208 200 200 200 199 198 200 202 204 203 204 200 201 212 207 201 202 202 209 232 241 253 267 278 286 294 301 306 305 304 300 299 298 298 297 297 297
236 246 210 220 217 188 206 201 222 211 213 214 214 213 212 208 203 204 205 208 210 211 207 208 207 216 212 220 228 231 232 235 246 265 274 282 290 298 302 303 302 299 299 300 300 301 303 302 300
234 226 211 147 179 152 202 202 214 207 206 221 218 215 216 217 210 208 210 213 216 215 218 215 215 221 226 220 226 227 242 249 258 266 277 287 294 298 303 306 302 300 304 307 309 309 307 305 304
204 212 223 144 203 156 218 249 107 195 212 227 221 219 219 222 219 216 214 217 220 226 220 226 223 216 222 231 232 239 245 250 258 269 282 294 299 305 310 309 307 308 312 311 310 308 309 309 308
208 234 194 191 161 199 195 250 171 190 213 225 227 227 227 225 225 223 222 221 225 226 230 223 225 221 224 235 238 243 249 250 259 274 288 298 302 309 313 315 312 316 316 315 309 314 313 313 309
287 254 232 191 128 248 237 237 242 209 226 233 233 233 234 246 239 229 227 221 220 221 232 236 237 238 236 236 231 220 216 238 255 277 291 304 312 313 314 317 320 322 321 315 318 316 317 317 317
227 231 224 215 179 234 224 238 182 266 265 278 276 270 252 235 227 219 218 217 221 241 243 247 240 245 241 233 198 196 205 234 264 283 299 311 313 314 315 319 323 320 322 323 310 330 331 325 327
225 230 229 237 175 229 245 238 175 124 102 97 73 59 33 273 251 235 220 217 232 239 245 245 245 248 232 219 216 217 231 257 277 290 294 310 312 315 320 324 328 328 331 322 332 325 332 322 333
226 212 234 223 222 236 190 267 163 139 133 111 82 66 34 18 340 176 179 165 177 193 209 227 231 246 240 225 228 234 263 268 263 280 305 308 312 319 323 330 332 335 338 329 327 340 335 326 328
98 210 222 217 225 258 196 247 127 156 160 119 77 62 52 51 74 92 104 114 122 169 202 202 206 205 196 186 199 234 246 269 296 302 305 315 318 324 327 340 339 341 337 333 349 345 339 336 337
127 196 188 211 218 225 228 244 237 149 112 121 82 68 61 62 73 89 99 104 106 109 114 134 154 167 178 192 216 240 286 304 302 313 318 328 328 327 323 339 341 341 339 334 343 339 334 346 342
208 201 194 208 206 239 135 222 54 113 133 46 52 52 47 61 81 95 103 110 115 115 115 140 166 175 189 243 295 312 311 313 319 337 338 338 329 316 309 335 334 337 341 341 338 333 336 336 341
205 220 251 240 209 222 146 233 132 130 138 128 115 102 90 90 105 112 118 122 124 124 122 133 146 154 308 329 325 323 331 335 335 338 336 332 320 317 317 323 322 334 340 338 328 330 339 343 347
180 221 287 258 265 280 256 127 171 167 172 177 172 159 136 129 132 134 137 135 133 131 137 132 127 37 336 334 324 336 345 344 343 338 343 322 324 315 315 312 314 315 326 333 324 323 340 338 342
255 179 195 214 243 241 231 240 274 185 192 185 182 179 162 157 154 151 149 148 139 136 142 126 97 328 328 2 360 348 347 353 348 348 340 329 325 313 311 311 306 305 310 318 326 323 330 333 335
185 213 230 289 309 260 267 257 93 175 180 176 176 172 171 166 164 160 158 152 146 135 130 146 89 37 9 355 354 357 355 351 349 350 341 333 326 316 309 303 303 303 306 312 316 322 323 323 324
274 238 213 233 218 235 271 278 137 148 163 172 169 165 165 166 164 164 164 159 152 143 136 145 13 42 8 358 355 358 357 353 355 351 340 340 327 329 323 312 308 305 307 313 318 316 314 317 319
Wind_Speed_850mb
5 5 2 6 12 14 14 16 11 15 13 7 11 2 3 5 13 9 23 21 31 30 31 27 26 26 26 25 26 26 25 21 17 14 10 7 5 4 4 3 3 4 5 6 7 7 7 8 10
5 3 4 10 16 14 16 18 11 14 8 12 17 11 7 11 10 24 25 31 32 31 30 27 25 23 23 22 21 19 17 15 13 11 10 9 6 4 3 1 1 4 6 8 9 11 12 13 14
3 3 12 9 9 15 17 12 16 21 11 13 10 0 4 7 13 31 23 34 30 30 29 27 24 22 20 20 18 17 15 13 12 10 8 6 6 4 3 1 3 6 8 9 9 10 11 13 15
4 7 12 14 2 14 10 16 18 23 15 7 11 14 12 13 23 17 31 33 28 27 26 26 24 23 22 20 18 17 15 13 12 10 9 7 4 2 1 3 4 6 8 10 11 13 14 16 18
7 12 13 12 7 8 9 19 21 17 12 14 8 13 12 13 16 28 32 29 27 26 25 26 26 24 21 19 18 17 15 13 11 8 5 3 2 2 1 2 4 7 10 12 11 11 11 11 14
18 11 15 13 14 11 12 22 20 14 15 15 10 20 17 17 23 29 29 27 25 25 26 25 26 24 22 20 17 15 13 9 6 4 2 1 1 1 1 4 6 5 7 7 7 9 10 14 16
25 14 7 6 16 18 18 24 22 16 19 16 17 17 16 23 24 27 27 27 25 24 25 25 25 24 22 20 16 13 11 9 7 7 6 5 4 4 4 7 5 4 5 7 11 14 17 21 25
15 15 12 7 11 25 21 27 23 16 19 14 16 10 21 30 30 26 24 23 23 24 23 24 25 23 21 18 17 15 14 14 13 12 10 10 9 9 7 3 2 4 9 14 19 23 27 31 35
9 14 15 10 14 19 29 23 24 13 16 19 18 5 11 35 33 27 25 25 25 24 24 25 24 24 23 21 21 21 19 17 15 14 12 11 6 5 1 9 13 16 20 24 29 34 38 42 46
19 19 9 11 10 5 30 27 31 19 23 22 25 10 27 36 33 30 31 30 28 25 25 26 26 26 26 23 24 20 19 14 14 12 11 7 10 8 9 14 20 27 30 36 42 45 48 47 38
15 20 14 12 4 3 21 26 32 28 24 28 32 23 35 38 34 30 30 29 27 23 25 28 30 30 26 22 21 18 15 17 15 14 13 13 10 13 11 15 19 25 33 33 37 43 41 42 53
18 19 13 3 7 5 12 24 30 36 13 14 18 27 37 40 36 32 33 32 29 26 27 30 31 36 28 21 19 16 13 13 8 12 16 16 10 18 21 23 28 30 31 45 40 45 49 64 59
23 15 15 17 16 19 16 25 27 39 32 6 25 30 36 40 36 33 33 33 31 31 30 31 31 34 32 29 17 15 13 9 13 10 22 23 23 30 33 36 42 45 50 53 63 62 60 72 64
12 15 18 15 21 17 23 25 30 33 36 29 29 33 39 43 42 35 37 37 37 35 33 32 30 35 31 27 23 15 17 13 8 20 27 30 32 38 41 44 47 55 67 70 72 62 74 67 62
12 18 21 15 11 12 22 17 31 26 33 38 32 35 39 44 44 45 40 43 40 37 34 35 33 31 34 32 28 29 23 17 23 29 32 35 38 44 48 54 61 66 73 73 69 63 58 56 57
21 18 26 19 19 8 27 30 36 34 25 36 36 36 40 46 48 45 42 42 41 34 33 30 30 31 38 33 35 27 38 37 32 32 36 35 41 49 50 58 65 71 72 65 54 54 53 54 56
20 26 25 19 12 15 23 17 18 24 30 34 38 42 41 43 44 48 45 40 38 37 34 32 37 34 32 47 42 44 38 37 33 33 37 40 45 52 60 67 67 69 64 54 47 47 50 53 54
25 28 16 17 17 17 27 24 16 18 27 36 40 39 43 45 43 38 37 35 37 38 40 42 40 43 44 46 50 49 42 36 32 35 38 42 53 64 73 64 64 64 52 46 46 49 46 48 50
16 17 19 18 7 11 21 21 22 13 25 34 39 38 35 31 25 30 35 36 37 46 51 57 55 56 56 52 39 27 26 32 31 36 41 49 63 72 71 59 57 49 44 45 43 41 41 41 40
21 24 25 15 6 15 16 24 8 3 13 18 25 26 26 25 25 22 22 26 34 40 43 53 47 53 50 46 33 30 23 29 29 36 44 62 62 63 61 59 49 43 42 39 45 43 39 37 34
24 26 24 25 17 14 11 24 20 9 7 11 10 5 5 5 15 18 15 13 20 30 37 41 47 51 48 37 36 31 23 24 34 44 57 63 70 61 55 51 44 38 37 35 41 33 36 42 44
23 27 24 22 21 23 17 17 23 18 11 7 8 8 8 13 1 8 8 4 5 8 15 20 24 36 37 33 28 23 25 27 42 46 56 50 54 51 47 43 35 35 40 36 32 39 42 41 45
2 4 23 28 27 18 24 15 15 19 18 9 13 16 18 19 17 13 9 7 8 4 6 13 18 24 25 26 25 27 36 33 44 37 37 47 54 41 35 31 30 31 30 31 36 40 38 38 41
6 10 16 19 20 22 23 10 15 12 3 7 17 21 21 20 19 18 17 18 20 20 22 21 28 33 33 29 26 21 22 24 22 31 37 34 27 21 23 27 30 30 29 33 37 36 34 37 40
20 20 16 18 19 20 13 11 9 14 7 4 8 12 15 15 16 18 20 21 22 20 18 16 21 19 12 6 10 14 18 22 27 27 24 30 20 20 24 27 30 31 32 33 38 35 33 33 38
31 26 15 17 14 13 15 13 12 10 11 9 8 8 9 12 15 18 20 20 19 17 16 13 9 3 2 7 14 16 17 21 25 29 29 18 21 24 29 27 29 32 33 30 31 28 31 33 40
17 21 12 15 9 16 15 14 11 16 14 14 13 11 12 15 18 19 20 20 18 15 14 9 5 1 6 10 13 16 19 20 23 27 26 21 26 28 29 28 29 30 30 29 29 29 30 33 33
23 19 14 16 20 24 17 11 10 26 24 21 20 19 19 19 21 22 22 21 17 14 10 7 5 4 9 10 13 17 21 23 25 24 27 28 31 32 31 29 29 29 29 30 31 29 33 33 33
18 24 15 12 9 16 19 10 9 15 21 23 26 27 27 26 25 25 23 21 18 15 10 3 5 6 10 11 15 19 18 22 24 25 28 32 33 30 29 30 28 29 30 32 34 34 33 38 36
12 25 32 21 24 14 18 18 4 15 21 22 25 25 25 27 29 27 24 22 17 14 10 4 1 5 8 11 11 13 18 19 20 25 30 33 28 27 27 25 26 28 30 32 36 37 36 36 37
Wind_Direction_850mb
331 326 273 237 242 246 110 94 89 124 133 128 159 116 42 35 346 43 143 149 148 153 165 160 151 148 146 147 149 154 161 162 163 158 146 145 142 126 116 99 57 19 18 18 12 7 1 352 347
312 302 256 269 258 213 96 108 148 79 84 141 145 152 123 67 59 131 136 146 149 154 159 169 162 156 154 154 156 157 159 158 159 161 166 175 176 170 164 148 341 331 339 345 345 343 342 341 339
268 224 261 259 270 31 101 141 111 112 122 150 143 180 35 63 124 141 153 149 152 153 158 172 167 163 160 162 161 161 164 169 176 180 184 181 188 190 192 210 344 339 339 341 345 343 338 333 329
228 242 240 252 75 76 89 126 134 136 130 150 132 107 98 97 138 158 149 150 148 154 158 166 164 164 164 166 167 167 168 169 172 176 179 181 190 220 310 344 354 357 354 349 347 338 329 325 323
241 246 243 234 100 120 136 147 154 140 115 144 155 118 106 142 138 141 145 149 153 154 159 159 158 158 159 163 164 164 166 169 175 174 173 173 217 246 279 24 6 338 330 328 332 334 337 347 345
243 266 235 196 112 131 139 160 164 140 130 126 158 139 127 155 145 151 150 154 160 160 155 166 157 156 159 164 166 168 170 173 174 185 174 177 214 194 349 335 344 30 51 34 7 348 332 327 325
264 249 299 91 118 147 144 170 182 154 157 168 146 149 131 160 161 153 154 161 161 166 162 163 164 162 165 170 172 172 168 164 156 166 160 156 161 164 146 115 91 39 359 339 326 317 312 308 306
262 267 206 179 174 113 147 173 181 177 149 148 170 162 170 171 162 158 162 163 164 169 171 169 169 171 169 170 166 163 155 159 156 146 139 133 133 130 128 110 335 289 290 299 302 305 305 303 303
243 241 212 145 199 128 159 176 186 179 164 180 185 121 145 170 161 162 168 172 176 175 179 175 172 178 169 178 165 162 163 159 154 150 141 133 142 154 272 245 270 292 297 298 301 302 302 302 301
237 252 126 99 87 137 176 198 177 185 183 191 180 161 157 165 166 173 179 182 182 182 183 179 177 178 172 175 179 168 171 163 166 164 166 142 195 216 225 281 287 292 296 299 304 304 304 309 303
194 247 125 159 87 16 175 202 183 209 195 202 192 169 171 172 177 185 189 186 184 183 182 183 181 180 179 179 178 178 180 185 184 192 192 210 218 257 281 290 301 298 303 308 299 302 302 294 294
233 236 212 116 185 218 192 200 199 212 189 221 197 181 180 183 187 191 191 188 190 188 187 186 189 188 179 188 184 192 185 186 182 216 222 245 272 287 286 296 295 304 303 304 308 305 297 300 297
232 222 225 246 253 250 244 217 210 214 218 222 190 188 190 193 194 196 195 194 196 196 198 194 194 198 198 187 196 185 184 201 230 240 250 260 277 287 297 298 304 304 304 306 302 300 297 297 297
184 240 245 257 260 238 222 211 211 224 218 218 208 200 200 200 199 198 200 202 204 203 204 200 201 212 207 201 202 202 209 232 241 253 267 278 286 294 301 306 305 304 300 299 298 298 297 297 297
236 246 210 220 217 188 206 201 222 211 213 214 214 213 212 208 203 204 205 208 210 211 207 208 207 216 212 220 228 231 232 235 246 265 274 282 290 298 302 303 302 299 299 300 300 301 303 302 300
234 226 211 147 179 152 202 202 214 207 206 221 218 215 216 217 210 208 210 213 216 215 218 215 215 221 226 220 226 227 242 249 258 266 277 287 294 298 303 306 302 300 304 307 309 309 307 305 304
204 212 223 144 203 156 218 249 107 195 212 227 221 219 219 222 219 216 214 217 220 226 220 226 223 216 222 231 232 239 245 250 258 269 282 294 299 305 310 309 307 308 312 311 310 308 309 309 308
208 234 194 191 161 199 195 250 171 190 213 225 227 227 227 225 225 223 222 221 225 226 230 223 225 221 224 235 238 243 249 250 259 274 288 298 302 309 313 315 312 316 316 315 309 314 313 313 309
287 254 232 191 128 248 237 237 242 209 226 233 233 233 234 246 239 229 227 221 220 221 232 236 237 238 236 236 231 220 216 238 255 277 291 304 312 313 314 317 320 322 321 315 318 316 317 317 317
227 231 224 215 179 234 224 238 182 266 265 278 276 270 252 235 227 219 218 217 221 241 243 247 240 245 241 233 198 196 205 234 264 283 299 311 313 314 315 319 323 320 322 323 310 330 331 325 327
225 230 229 237 175 229 245 238 175 124 102 97 73 59 33 273 251 235 220 217 232 239 245 245 245 248 232 219 216 217 231 257 277 290 294 310 312 315 320 324 328 328 331 322 332 325 332 322 333
226 212 234 223 222 236 190 267 163 139 133 111 82 66 34 18 340 176 179 165 177 193 209 227 231 246 240 225 228 234 263 268 263 280 305 308 312 319 323 330 332 335 338 329 327 340 335 326 328
98 210 222 217 225 258 196 247 127 156 160 119 77 62 52 51 74 92 104 114 122 169 202 202 206 205 196 186 199 234 246 269 296 302 305 315 318 324 327 340 339 341 337 333 349 345 339 336 337
127 196 188 211 218 225 228 244 237 149 112 121 82 68 61 62 73 89 99 104 106 109 114 134 154 167 178 192 216 240 286 304 302 313 318 328 328 327 323 339 341 341 339 334 343 339 334 346 342
208 201 194 208 206 239 135 222 54 113 133 46 52 52 47 61 81 95 103 110 115 115 115 140 166 175 189 243 295 312 311 313 319 337 338 338 329 316 309 335 334 337 341 341 338 333 336 336 341
205 220 251 240 209 222 146 233 132 130 138 128 115 102 90 90 105 112 118 122 124 124 122 133 146 154 308 329 325 323 331 335 335 338 336 332 320 317 317 323 322 334 340 338 328 330 339 343 347
180 221 287 258 265 280 256 127 171 167 172 177 172 159 136 129 132 134 137 135 133 131 137 132 127 37 336 334 324 336 345 344 343 338 343 322 324 315 315 312 314 315 326 333 324 323 340 338 342
255 179 195 214 243 241 231 240 274 185 192 185 182 179 162 157 154 151 149 148 139 136 142 126 97 328 328 2 360 348 347 353 348 348 340 329 325 313 311 311 306 305 310 318 326 323 330 333 335
185 213 230 289 309 260 267 257 93 175 180 176 176 172 171 166 164 160 158 152 146 135 130 146 89 37 9 355 354 357 355 351 349 350 341 333 326 316 309 303 303 303 306 312 316 322 323 323 324
274 238 213 233 218 235 271 278 137 148 163 172 169 165 165 166 164 164 164 159 152 143 136 145 13 42 8 358 355 358 357 353 355 351 340 340 327 329 323 312 308 305 307 313 318 316 314 317 319